TimeCDT,TemperatureF,Dew PointF,Humidity,Sea Level PressureIn,VisibilityMPH,Wind Direction,Wind SpeedMPH,Gust SpeedMPH,PrecipitationIn,Events,Conditions,WindDirDegrees,DateUTC
12:56 AM,27.0,24.1,89,30.55,10.0,ESE,5.8,-,N/A,,Clear,110,2013-05-03 05:56:00
1:56 AM,25.0,21.9,88,30.53,10.0,ESE,5.8,-,N/A,,Clear,120,2013-05-03 06:56:00
2:56 AM,25.0,21.0,85,30.52,10.0,Calm,Calm,-,N/A,,Clear,0,2013-05-03 07:56:00
3:56 AM,24.1,21.9,91,30.51,9.0,Calm,Calm,-,N/A,,Clear,0,2013-05-03 08:56:00
4:56 AM,24.1,19.9,84,30.51,9.0,Calm,Calm,-,N/A,,Clear,0,2013-05-03 09:56:00
5:45 AM,21.2,19.4,93,30.45,1.8,Calm,Calm,-,N/A,,Clear,0,2013-05-03 10:45:00
5:54 AM,21.2,19.4,93,30.45,0.8,Calm,Calm,-,N/A,,Clear,0,2013-05-03 10:54:00
5:56 AM,21.9,19.0,89,30.51,0.8,Calm,Calm,-,N/A,,Clear,0,2013-05-03 10:56:00
6:03 AM,21.2,19.4,93,30.45,1.8,Calm,Calm,-,N/A,,Clear,0,2013-05-03 11:03:00
6:09 AM,21.2,19.4,93,30.45,3.0,Calm,Calm,-,N/A,,Clear,0,2013-05-03 11:09:00
6:56 AM,23.0,19.9,88,30.51,5.0,Calm,Calm,-,N/A,,Clear,0,2013-05-03 11:56:00
7:56 AM,28.0,25.0,88,30.49,7.0,Calm,Calm,-,N/A,,Clear,0,2013-05-03 12:56:00
8:56 AM,30.9,26.1,82,30.49,10.0,NNE,3.5,-,N/A,,Clear,20,2013-05-03 13:56:00
9:56 AM,35.1,25.0,67,30.47,10.0,ENE,5.8,-,N/A,,Scattered Clouds,70,2013-05-03 14:56:00
10:56 AM,37.0,25.0,62,30.45,10.0,Variable,4.6,-,0.00,,Clear,0,2013-05-03 15:56:00
11:56 AM,43.0,24.1,47,30.43,10.0,ENE,6.9,-,N/A,,Clear,70,2013-05-03 16:56:00
1:56 PM,46.9,24.1,41,30.38,10.0,ENE,8.1,-,N/A,,Clear,70,2013-05-03 18:56:00
2:56 PM,48.0,24.1,39,30.35,10.0,NNE,8.1,-,N/A,,Clear,30,2013-05-03 19:56:00
3:56 PM,50.0,24.1,36,30.33,10.0,NE,13.8,19.6,N/A,,Clear,50,2013-05-03 20:56:00
4:56 PM,51.1,26.1,38,30.31,10.0,NE,11.5,17.3,N/A,,Clear,40,2013-05-03 21:56:00
5:56 PM,51.1,24.1,35,30.31,10.0,NNE,13.8,-,N/A,,Clear,20,2013-05-03 22:56:00
6:56 PM,48.9,25.0,39,30.30,10.0,NE,11.5,-,N/A,,Clear,40,2013-05-03 23:56:00
7:56 PM,46.9,26.1,44,30.30,10.0,NE,11.5,-,N/A,,Clear,50,2013-05-04 00:56:00
8:56 PM,42.1,28.0,58,30.32,10.0,NE,8.1,-,N/A,,Clear,40,2013-05-04 01:56:00
9:56 PM,39.0,28.0,65,30.33,10.0,NE,8.1,-,N/A,,Clear,40,2013-05-04 02:56:00
10:56 PM,36.0,28.0,73,30.32,10.0,NE,6.9,-,N/A,,Clear,40,2013-05-04 03:56:00
11:56 PM,33.1,28.0,82,30.32,10.0,North,5.8,-,N/A,,Clear,10,2013-05-04 04:56:00